Time,TemperatureF,DewpointF,PressureIn,WindDirection,WindDirectionDegrees,WindSpeedMPH,WindSpeedGustMPH,Humidity,HourlyPrecipIn,Conditions,Clouds,dailyrainin,SoftwareType,DateUTC
2013-05-23 00:50:00,62.1,61.5,29.90,East,90,1.6,1.6,98,0.00,,,0.00,meteobridge,2013-05-23 04:50:00,
2013-05-23 00:51:00,62.1,61.5,29.90,East,90,1.6,1.6,98,0.00,,,0.00,meteobridge,2013-05-23 04:51:00,
2013-05-23 00:52:00,62.1,61.5,29.90,East,90,1.6,1.6,98,0.00,,,0.00,meteobridge,2013-05-23 04:52:00,
2013-05-23 00:58:00,62.1,61.5,29.90,East,90,1.6,1.6,98,0.00,,,0.00,meteobridge,2013-05-23 04:58:00,
2013-05-23 01:03:00,62.1,61.5,29.90,West,270,2.2,2.2,98,0.00,,,0.00,meteobridge,2013-05-23 05:03:00,
2013-05-23 01:08:00,62.4,61.9,29.90,NE,45,1.6,1.6,98,0.00,,,0.00,meteobridge,2013-05-23 05:08:00,
2013-05-23 01:13:00,62.6,61.7,29.90,NE,45,1.6,2.2,97,0.00,,,0.00,meteobridge,2013-05-23 05:13:00,
2013-05-23 01:18:00,62.6,61.7,29.89,NE,45,1.6,1.6,97,0.00,,,0.00,meteobridge,2013-05-23 05:18:00,
2013-05-23 01:23:00,62.6,61.7,29.90,NE,45,1.6,-999.0,97,0.00,,,0.00,meteobridge,2013-05-23 05:23:00,
2013-05-23 01:29:00,62.6,61.7,29.90,NE,45,1.6,-999.0,97,0.00,,,0.00,meteobridge,2013-05-23 05:29:00,
2013-05-23 02:12:00,62.6,61.7,29.89,NE,45,2.2,2.2,97,0.00,,,0.00,meteobridge,2013-05-23 06:12:00,
2013-05-23 02:18:00,62.6,61.7,29.89,NE,45,2.2,2.2,97,0.00,,,0.00,meteobridge,2013-05-23 06:18:00,
2013-05-23 02:23:00,62.6,61.7,29.88,NE,45,4.5,4.5,97,0.00,,,0.00,meteobridge,2013-05-23 06:23:00,
2013-05-23 02:28:00,62.6,61.7,29.88,North,0,2.2,2.2,97,0.00,,,0.00,meteobridge,2013-05-23 06:28:00,
2013-05-23 02:33:00,62.6,61.7,29.88,NE,45,3.8,3.8,97,0.00,,,0.00,meteobridge,2013-05-23 06:33:00,
2013-05-23 02:38:00,62.6,61.7,29.88,North,0,6.9,6.9,97,0.00,,,0.00,meteobridge,2013-05-23 06:38:00,
2013-05-23 02:43:00,62.6,61.7,29.88,NNE,23,3.8,3.8,97,0.00,,,0.00,meteobridge,2013-05-23 06:43:00,
2013-05-23 02:49:00,63.0,62.1,29.88,West,270,6.9,6.9,97,0.00,,,0.00,meteobridge,2013-05-23 06:49:00,
2013-05-23 02:54:00,63.0,62.1,29.88,NE,45,1.6,1.6,97,0.00,,,0.00,meteobridge,2013-05-23 06:54:00,
2013-05-23 02:59:00,63.0,62.1,29.88,NE,45,3.1,3.1,97,0.00,,,0.00,meteobridge,2013-05-23 06:59:00,
2013-05-23 03:04:00,63.0,62.1,29.88,East,90,3.1,3.1,97,0.00,,,0.00,meteobridge,2013-05-23 07:04:00,
2013-05-23 03:09:00,63.1,62.2,29.88,NNE,23,4.5,4.5,97,0.00,,,0.00,meteobridge,2013-05-23 07:09:00,
2013-05-23 03:14:00,63.1,62.2,29.88,NNE,23,4.5,4.5,97,0.00,,,0.00,meteobridge,2013-05-23 07:14:00,
2013-05-23 03:20:00,63.1,62.2,29.88,NE,45,3.1,3.1,97,0.00,,,0.00,meteobridge,2013-05-23 07:20:00,
2013-05-23 03:25:00,63.1,62.2,29.88,NE,45,3.1,3.1,97,0.00,,,0.00,meteobridge,2013-05-23 07:25:00,
2013-05-23 03:30:00,63.3,62.4,29.88,SE,135,7.6,7.6,97,0.00,,,0.00,meteobridge,2013-05-23 07:30:00,
2013-05-23 03:35:00,63.3,62.4,29.88,SE,135,7.6,7.6,97,0.00,,,0.00,meteobridge,2013-05-23 07:35:00,
2013-05-23 03:40:00,63.3,62.4,29.88,SE,135,7.6,-999.0,97,0.00,,,0.00,meteobridge,2013-05-23 07:40:00,
2013-05-23 03:45:00,63.5,62.6,29.87,South,180,3.1,3.1,97,0.00,,,0.00,meteobridge,2013-05-23 07:45:00,
2013-05-23 03:51:00,63.5,62.6,29.87,NNE,23,3.8,3.8,97,0.00,,,0.00,meteobridge,2013-05-23 07:51:00,
2013-05-23 03:56:00,63.7,62.8,29.88,NW,315,3.1,3.8,97,0.00,,,0.00,meteobridge,2013-05-23 07:56:00,
2013-05-23 04:01:00,63.7,62.8,29.87,SE,135,8.3,8.3,97,0.00,,,0.00,meteobridge,2013-05-23 08:01:00,
2013-05-23 04:06:00,63.7,62.8,29.88,SE,135,8.3,8.3,97,0.00,,,0.00,meteobridge,2013-05-23 08:06:00,
2013-05-23 04:11:00,63.9,63.0,29.87,SW,225,6.9,6.9,97,0.00,,,0.00,meteobridge,2013-05-23 08:11:00,
2013-05-23 04:16:00,63.9,63.0,29.87,SW,225,6.9,6.9,97,0.00,,,0.00,meteobridge,2013-05-23 08:16:00,
2013-05-23 04:22:00,64.0,63.1,29.87,WSW,248,3.1,6.9,97,0.00,,,0.00,meteobridge,2013-05-23 08:22:00,
2013-05-23 04:27:00,64.0,63.1,29.87,WSW,248,3.1,3.1,97,0.00,,,0.00,meteobridge,2013-05-23 08:27:00,
2013-05-23 04:32:00,64.0,63.1,29.87,NE,45,5.4,5.4,97,0.00,,,0.00,meteobridge,2013-05-23 08:32:00,
2013-05-23 04:37:00,64.0,63.1,29.87,NE,45,5.4,5.4,97,0.00,,,0.00,meteobridge,2013-05-23 08:37:00,
2013-05-23 04:42:00,64.0,63.1,29.88,NE,45,3.1,3.8,97,0.00,,,0.00,meteobridge,2013-05-23 08:42:00,
2013-05-23 04:47:00,63.9,63.0,29.88,NE,45,5.4,5.4,97,0.00,,,0.00,meteobridge,2013-05-23 08:47:00,
2013-05-23 04:52:00,63.7,62.8,29.88,NE,45,3.8,6.0,97,0.00,,,0.00,meteobridge,2013-05-23 08:52:00,
2013-05-23 04:58:00,63.7,62.8,29.88,NE,45,3.8,5.4,97,0.00,,,0.00,meteobridge,2013-05-23 08:58:00,
2013-05-23 05:03:00,63.7,62.8,29.89,NE,45,3.1,3.1,97,0.00,,,0.00,meteobridge,2013-05-23 09:03:00,
2013-05-23 05:08:00,63.7,62.8,29.89,NE,45,3.1,3.1,97,0.00,,,0.00,meteobridge,2013-05-23 09:08:00,
2013-05-23 05:13:00,63.5,62.6,29.89,NE,45,4.5,4.5,97,0.00,,,0.00,meteobridge,2013-05-23 09:13:00,
2013-05-23 05:18:00,63.5,62.6,29.89,NE,45,2.2,2.2,97,0.00,,,0.00,meteobridge,2013-05-23 09:18:00,
2013-05-23 05:23:00,63.7,62.8,29.89,North,0,2.2,2.2,97,0.00,,,0.00,meteobridge,2013-05-23 09:23:00,
2013-05-23 05:29:00,63.7,62.8,29.89,North,0,1.6,1.6,97,0.00,,,0.00,meteobridge,2013-05-23 09:29:00,
2013-05-23 05:34:00,63.7,62.8,29.89,SE,135,3.1,3.1,97,0.00,,,0.00,meteobridge,2013-05-23 09:34:00,
2013-05-23 05:39:00,63.7,62.8,29.89,SE,135,3.1,3.1,97,0.00,,,0.00,meteobridge,2013-05-23 09:39:00,
2013-05-23 05:44:00,63.9,63.0,29.89,North,0,3.1,3.1,97,0.00,,,0.00,meteobridge,2013-05-23 09:44:00,
2013-05-23 05:49:00,63.9,63.0,29.90,NE,45,3.1,3.1,97,0.00,,,0.00,meteobridge,2013-05-23 09:49:00,
2013-05-23 05:54:00,63.9,63.0,29.90,NE,45,3.1,3.1,97,0.00,,,0.00,meteobridge,2013-05-23 09:54:00,
2013-05-23 06:00:00,63.9,63.0,29.90,East,90,4.5,5.4,97,0.00,,,0.00,meteobridge,2013-05-23 10:00:00,
2013-05-23 06:05:00,63.9,63.0,29.90,NW,315,1.6,4.5,97,0.00,,,0.00,meteobridge,2013-05-23 10:05:00,
2013-05-23 06:10:00,64.0,63.1,29.90,SSW,203,3.1,3.8,97,0.00,,,0.00,meteobridge,2013-05-23 10:10:00,
2013-05-23 06:15:00,64.0,63.1,29.91,NE,45,6.9,6.9,97,0.00,,,0.00,meteobridge,2013-05-23 10:15:00,
2013-05-23 06:20:00,64.0,63.1,29.90,North,0,6.9,6.9,97,0.00,,,0.00,meteobridge,2013-05-23 10:20:00,
2013-05-23 06:25:00,64.0,63.1,29.90,East,90,3.8,3.8,97,0.00,,,0.00,meteobridge,2013-05-23 10:25:00,
2013-05-23 06:31:00,64.2,63.3,29.90,NE,45,6.0,6.0,97,0.00,,,0.00,meteobridge,2013-05-23 10:31:00,
2013-05-23 06:36:00,64.2,63.3,29.90,ENE,68,3.8,3.8,97,0.00,,,0.00,meteobridge,2013-05-23 10:36:00,
2013-05-23 06:41:00,64.4,64.0,29.90,NE,45,10.7,10.7,99,0.00,,,0.00,meteobridge,2013-05-23 10:41:00,
2013-05-23 06:46:00,64.4,64.0,29.90,NE,45,4.5,4.5,99,0.00,,,0.00,meteobridge,2013-05-23 10:46:00,
2013-05-23 06:51:00,64.6,64.2,29.90,North,0,4.5,4.5,99,0.00,,,0.00,meteobridge,2013-05-23 10:51:00,
2013-05-23 06:56:00,64.6,64.2,29.91,North,0,4.5,4.5,99,0.00,,,0.00,meteobridge,2013-05-23 10:56:00,
2013-05-23 07:02:00,64.8,64.4,29.91,South,180,3.1,3.1,99,0.00,,,0.00,meteobridge,2013-05-23 11:02:00,
2013-05-23 07:07:00,64.8,64.4,29.91,WSW,248,3.1,4.5,99,0.00,,,0.00,meteobridge,2013-05-23 11:07:00,
2013-05-23 07:12:00,64.8,64.4,29.91,NE,45,3.1,4.5,99,0.00,,,0.00,meteobridge,2013-05-23 11:12:00,
2013-05-23 07:17:00,64.8,64.4,29.91,SW,225,3.1,3.1,99,0.00,,,0.00,meteobridge,2013-05-23 11:17:00,
2013-05-23 07:22:00,64.9,64.6,29.91,East,90,3.8,3.8,99,0.00,,,0.00,meteobridge,2013-05-23 11:22:00,
2013-05-23 07:27:00,65.1,64.8,29.91,West,270,2.2,2.2,99,0.00,,,0.00,meteobridge,2013-05-23 11:27:00,
2013-05-23 07:33:00,65.5,65.1,29.91,East,90,1.6,3.8,99,0.00,,,0.00,meteobridge,2013-05-23 11:33:00,
2013-05-23 07:38:00,65.7,65.3,29.91,NE,45,4.5,4.5,99,0.00,,,0.00,meteobridge,2013-05-23 11:38:00,
2013-05-23 07:43:00,65.8,65.5,29.91,SE,135,3.8,4.5,99,0.00,,,0.00,meteobridge,2013-05-23 11:43:00,
2013-05-23 07:48:00,65.8,65.5,29.91,NE,45,6.0,6.0,99,0.00,,,0.00,meteobridge,2013-05-23 11:48:00,
2013-05-23 07:53:00,66.2,65.7,29.91,ESE,113,3.8,7.6,98,0.00,,,0.00,meteobridge,2013-05-23 11:53:00,
2013-05-23 07:58:00,66.2,65.7,29.91,NE,45,4.5,4.5,98,0.00,,,0.00,meteobridge,2013-05-23 11:58:00,
2013-05-23 08:04:00,66.6,65.7,29.91,ENE,68,3.8,4.5,97,0.00,,,0.00,meteobridge,2013-05-23 12:04:00,
2013-05-23 08:09:00,66.6,65.7,29.91,NE,45,6.9,6.9,97,0.00,,,0.00,meteobridge,2013-05-23 12:09:00,
2013-05-23 08:14:00,66.6,65.3,29.91,North,0,5.4,6.0,96,0.00,,,0.00,meteobridge,2013-05-23 12:14:00,
2013-05-23 08:19:00,66.6,65.3,29.91,NE,45,3.8,3.8,96,0.00,,,0.00,meteobridge,2013-05-23 12:19:00,
2013-05-23 08:24:00,66.7,65.5,29.91,North,0,4.5,4.5,96,0.00,,,0.00,meteobridge,2013-05-23 12:24:00,
2013-05-23 08:29:00,66.7,65.5,29.91,SW,225,3.8,3.8,96,0.00,,,0.00,meteobridge,2013-05-23 12:29:00,
2013-05-23 08:35:00,66.7,65.3,29.91,NE,45,3.1,3.1,95,0.00,,,0.00,meteobridge,2013-05-23 12:35:00,
2013-05-23 08:40:00,66.6,65.1,29.91,East,90,3.8,5.4,95,0.00,,,0.00,meteobridge,2013-05-23 12:40:00,
2013-05-23 08:45:00,66.4,64.9,29.91,East,90,3.8,7.6,95,0.00,,,0.00,meteobridge,2013-05-23 12:45:00,
2013-05-23 08:50:00,66.4,64.9,29.91,East,90,3.8,3.8,95,0.00,,,0.00,meteobridge,2013-05-23 12:50:00,
2013-05-23 08:55:00,66.6,65.1,29.91,East,90,3.1,3.1,95,0.00,,,0.00,meteobridge,2013-05-23 12:55:00,
2013-05-23 09:00:00,66.6,65.1,29.91,East,90,4.5,5.4,95,0.00,,,0.00,meteobridge,2013-05-23 13:00:00,
2013-05-23 09:05:00,66.6,65.1,29.92,North,0,3.8,5.4,95,0.00,,,0.00,meteobridge,2013-05-23 13:05:00,
2013-05-23 09:11:00,66.4,64.9,29.92,NE,45,5.4,5.4,95,0.00,,,0.00,meteobridge,2013-05-23 13:11:00,
2013-05-23 09:16:00,66.4,64.9,29.91,SW,225,3.8,3.8,95,0.00,,,0.00,meteobridge,2013-05-23 13:16:00,
2013-05-23 09:21:00,66.6,65.1,29.92,SW,225,2.2,2.2,95,0.00,,,0.00,meteobridge,2013-05-23 13:21:00,
2013-05-23 09:26:00,66.7,65.3,29.91,NW,315,5.4,6.9,95,0.00,,,0.00,meteobridge,2013-05-23 13:26:00,
2013-05-23 09:31:00,66.7,65.3,29.92,NW,315,5.4,5.4,95,0.00,,,0.00,meteobridge,2013-05-23 13:31:00,
2013-05-23 09:36:00,67.1,65.3,29.91,ENE,68,6.9,6.9,94,0.00,,,0.00,meteobridge,2013-05-23 13:36:00,
2013-05-23 09:42:00,67.3,65.5,29.91,NE,45,4.5,4.5,94,0.00,,,0.00,meteobridge,2013-05-23 13:42:00,
2013-05-23 09:47:00,67.3,65.1,29.91,NE,45,3.8,3.8,93,0.00,,,0.00,meteobridge,2013-05-23 13:47:00,
2013-05-23 09:52:00,67.5,65.3,29.91,NE,45,6.0,6.0,93,0.00,,,0.00,meteobridge,2013-05-23 13:52:00,
2013-05-23 09:57:00,67.8,65.7,29.91,NE,45,6.0,6.0,93,0.00,,,0.00,meteobridge,2013-05-23 13:57:00,
2013-05-23 10:02:00,68.0,65.3,29.91,NE,45,3.8,4.5,91,0.00,,,0.00,meteobridge,2013-05-23 14:02:00,
2013-05-23 10:07:00,68.0,65.3,29.91,South,180,6.9,6.9,91,0.00,,,0.00,meteobridge,2013-05-23 14:07:00,
2013-05-23 10:13:00,68.2,65.5,29.91,NE,45,5.4,5.4,91,0.00,,,0.00,meteobridge,2013-05-23 14:13:00,
2013-05-23 10:18:00,68.4,65.7,29.92,SE,135,5.4,5.4,91,0.00,,,0.00,meteobridge,2013-05-23 14:18:00,
2013-05-23 10:23:00,68.5,65.8,29.91,NE,45,6.0,8.3,91,0.00,,,0.00,meteobridge,2013-05-23 14:23:00,
2013-05-23 10:28:00,68.5,65.5,29.92,NE,45,3.1,3.8,90,0.00,,,0.00,meteobridge,2013-05-23 14:28:00,
2013-05-23 10:33:00,68.5,65.5,29.92,NE,45,9.2,9.2,90,0.00,,,0.00,meteobridge,2013-05-23 14:33:00,
2013-05-23 10:38:00,68.4,65.3,29.91,East,90,6.0,6.0,90,0.00,,,0.00,meteobridge,2013-05-23 14:38:00,
2013-05-23 10:44:00,68.4,65.3,29.92,NE,45,6.0,6.0,90,0.00,,,0.00,meteobridge,2013-05-23 14:44:00,
2013-05-23 10:49:00,68.2,65.1,29.92,NE,45,4.5,4.5,90,0.00,,,0.00,meteobridge,2013-05-23 14:49:00,
2013-05-23 10:54:00,68.2,65.1,29.92,ENE,68,3.8,5.4,90,0.00,,,0.00,meteobridge,2013-05-23 14:54:00,
2013-05-23 10:59:00,68.4,65.3,29.92,North,0,3.1,3.8,90,0.00,,,0.00,meteobridge,2013-05-23 14:59:00,
2013-05-23 11:04:00,68.5,65.5,29.92,NE,45,2.2,3.1,90,0.00,,,0.00,meteobridge,2013-05-23 15:04:00,
2013-05-23 11:09:00,69.1,66.0,29.92,East,90,6.9,6.9,90,0.00,,,0.00,meteobridge,2013-05-23 15:09:00,
2013-05-23 11:15:00,69.3,65.8,29.92,NE,45,2.2,5.4,89,0.00,,,0.00,meteobridge,2013-05-23 15:15:00,
2013-05-23 11:20:00,69.4,65.7,29.92,ENE,68,3.1,6.9,88,0.00,,,0.00,meteobridge,2013-05-23 15:20:00,
2013-05-23 11:25:00,69.4,65.7,29.92,NE,45,4.5,5.4,88,0.00,,,0.00,meteobridge,2013-05-23 15:25:00,
2013-05-23 11:30:00,69.6,65.8,29.92,South,180,6.0,6.0,88,0.00,,,0.00,meteobridge,2013-05-23 15:30:00,
2013-05-23 11:35:00,69.6,65.7,29.92,NE,45,6.0,9.2,87,0.00,,,0.00,meteobridge,2013-05-23 15:35:00,
2013-05-23 11:40:00,69.8,65.5,29.92,ENE,68,3.8,6.9,86,0.00,,,0.00,meteobridge,2013-05-23 15:40:00,
2013-05-23 11:46:00,69.6,65.7,29.92,North,0,5.4,5.4,87,0.00,,,0.00,meteobridge,2013-05-23 15:46:00,
2013-05-23 11:51:00,69.6,65.7,29.92,NE,45,4.5,4.5,87,0.00,,,0.00,meteobridge,2013-05-23 15:51:00,
2013-05-23 11:56:00,70.0,65.7,29.92,East,90,6.9,6.9,86,0.00,,,0.00,meteobridge,2013-05-23 15:56:00,
2013-05-23 12:01:00,70.2,65.8,29.92,NE,45,6.0,6.0,86,0.00,,,0.00,meteobridge,2013-05-23 16:01:00,
2013-05-23 12:06:00,70.7,66.0,29.92,SE,135,6.9,6.9,85,0.00,,,0.00,meteobridge,2013-05-23 16:06:00,
2013-05-23 12:11:00,71.4,66.4,29.92,North,0,3.8,3.8,84,0.00,,,0.00,meteobridge,2013-05-23 16:11:00,
2013-05-23 12:17:00,72.0,66.2,29.92,NE,45,6.9,6.9,82,0.00,,,0.00,meteobridge,2013-05-23 16:17:00,
2013-05-23 12:22:00,72.0,66.2,29.92,North,0,5.4,5.4,82,0.00,,,0.00,meteobridge,2013-05-23 16:22:00,
2013-05-23 12:27:00,72.1,66.0,29.92,East,90,5.4,5.4,81,0.00,,,0.00,meteobridge,2013-05-23 16:27:00,
2013-05-23 12:32:00,72.3,66.6,29.92,NE,45,4.5,4.5,82,0.00,,,0.00,meteobridge,2013-05-23 16:32:00,
2013-05-23 12:37:00,72.1,66.0,29.92,NW,315,3.1,3.1,81,0.00,,,0.00,meteobridge,2013-05-23 16:37:00,
2013-05-23 12:42:00,72.1,66.0,29.92,SE,135,5.4,5.4,81,0.00,,,0.00,meteobridge,2013-05-23 16:42:00,
2013-05-23 12:48:00,72.1,66.0,29.92,NNE,23,6.9,6.9,81,0.00,,,0.00,meteobridge,2013-05-23 16:48:00,
2013-05-23 12:53:00,71.8,65.7,29.92,NE,45,5.4,5.4,81,0.00,,,0.00,meteobridge,2013-05-23 16:53:00,
2013-05-23 12:58:00,72.0,65.8,29.92,SW,225,3.1,5.4,81,0.00,,,0.00,meteobridge,2013-05-23 16:58:00,
2013-05-23 13:03:00,72.5,66.4,29.91,East,90,4.5,4.5,81,0.00,,,0.00,meteobridge,2013-05-23 17:03:00,
2013-05-23 13:08:00,73.8,67.6,29.91,NW,315,5.4,5.4,81,0.00,,,0.00,meteobridge,2013-05-23 17:08:00,
2013-05-23 13:13:00,74.7,67.3,29.91,SW,225,5.4,6.0,78,0.00,,,0.00,meteobridge,2013-05-23 17:13:00,
2013-05-23 13:18:00,74.7,67.3,29.91,ENE,68,2.2,3.1,78,0.00,,,0.00,meteobridge,2013-05-23 17:18:00,
2013-05-23 13:24:00,74.7,66.6,29.91,SE,135,6.0,6.0,76,0.00,,,0.00,meteobridge,2013-05-23 17:24:00,
2013-05-23 13:29:00,74.1,66.4,29.91,North,0,4.5,5.4,77,0.00,,,0.00,meteobridge,2013-05-23 17:29:00,
2013-05-23 13:34:00,73.6,66.4,29.91,West,270,6.0,6.0,78,0.00,,,0.00,meteobridge,2013-05-23 17:34:00,
2013-05-23 13:39:00,73.2,66.4,29.91,NE,45,6.0,6.0,79,0.00,,,0.00,meteobridge,2013-05-23 17:39:00,
2013-05-23 13:44:00,72.5,66.0,29.91,NE,45,4.5,4.5,80,0.00,,,0.00,meteobridge,2013-05-23 17:44:00,
2013-05-23 13:49:00,72.7,66.6,29.91,NW,315,4.5,5.4,81,0.00,,,0.00,meteobridge,2013-05-23 17:49:00,
2013-05-23 13:55:00,72.7,66.2,29.91,NE,45,6.9,7.6,80,0.00,,,0.00,meteobridge,2013-05-23 17:55:00,
2013-05-23 14:00:00,72.3,65.8,29.91,NW,315,8.3,8.3,80,0.00,,,0.00,meteobridge,2013-05-23 18:00:00,
2013-05-23 14:05:00,72.0,65.8,29.90,NE,45,4.5,6.9,81,0.00,,,0.00,meteobridge,2013-05-23 18:05:00,
2013-05-23 14:10:00,72.5,66.4,29.91,NE,45,6.9,6.9,81,0.00,,,0.00,meteobridge,2013-05-23 18:10:00,
2013-05-23 14:15:00,73.0,66.6,29.91,North,0,7.6,7.6,80,0.00,,,0.00,meteobridge,2013-05-23 18:15:00,
2013-05-23 14:20:00,73.4,66.6,29.91,East,90,6.0,6.0,79,0.00,,,0.00,meteobridge,2013-05-23 18:20:00,
2013-05-23 14:26:00,73.2,66.0,29.90,NE,45,6.9,12.1,78,0.00,,,0.00,meteobridge,2013-05-23 18:26:00,
2013-05-23 14:31:00,72.9,66.0,29.91,East,90,9.2,9.2,79,0.00,,,0.00,meteobridge,2013-05-23 18:31:00,
2013-05-23 14:36:00,72.3,65.5,29.91,NE,45,7.6,7.6,79,0.00,,,0.00,meteobridge,2013-05-23 18:36:00,
2013-05-23 14:41:00,71.8,65.7,29.91,South,180,6.9,7.6,81,0.00,,,0.00,meteobridge,2013-05-23 18:41:00,
2013-05-23 14:46:00,72.0,65.8,29.91,NE,45,6.9,6.9,81,0.00,,,0.00,meteobridge,2013-05-23 18:46:00,
2013-05-23 14:51:00,72.0,65.8,29.91,NE,45,3.8,6.0,81,0.00,,,0.00,meteobridge,2013-05-23 18:51:00,
2013-05-23 14:57:00,72.3,66.2,29.91,NE,45,7.6,7.6,81,0.00,,,0.00,meteobridge,2013-05-23 18:57:00,
2013-05-23 15:02:00,72.3,66.2,29.90,NE,45,3.8,3.8,81,0.00,,,0.00,meteobridge,2013-05-23 19:02:00,
2013-05-23 15:07:00,72.5,66.4,29.91,NE,45,6.0,7.6,81,0.00,,,0.00,meteobridge,2013-05-23 19:07:00,
2013-05-23 15:12:00,72.5,66.4,29.91,NE,45,4.5,5.4,81,0.00,,,0.00,meteobridge,2013-05-23 19:12:00,
2013-05-23 15:17:00,72.5,66.4,29.91,NE,45,6.9,10.7,81,0.00,,,0.00,meteobridge,2013-05-23 19:17:00,
2013-05-23 15:22:00,72.7,66.6,29.91,SE,135,4.5,6.0,81,0.00,,,0.00,meteobridge,2013-05-23 19:22:00,
2013-05-23 15:28:00,72.3,66.2,29.91,South,180,4.5,6.0,81,0.00,,,0.00,meteobridge,2013-05-23 19:28:00,
2013-05-23 15:33:00,72.1,66.0,29.90,SE,135,5.4,6.9,81,0.00,,,0.00,meteobridge,2013-05-23 19:33:00,
2013-05-23 15:38:00,72.3,72.3,29.91,ESE,113,19.7,19.7,0,12.38,,,12.38,meteobridge,2013-05-23 19:38:00,
2013-05-23 15:43:00,72.5,66.4,29.91,East,90,5.4,5.4,81,12.38,,,12.38,meteobridge,2013-05-23 19:43:00,
2013-05-23 15:48:00,73.0,66.9,29.90,SE,135,5.4,6.0,81,12.38,,,12.38,meteobridge,2013-05-23 19:48:00,
2013-05-23 15:53:00,73.6,67.1,29.90,East,90,5.4,8.3,80,12.38,,,12.38,meteobridge,2013-05-23 19:53:00,
2013-05-23 15:59:00,73.4,66.6,29.90,NW,315,5.4,7.6,79,12.38,,,12.38,meteobridge,2013-05-23 19:59:00,
2013-05-23 16:04:00,73.4,66.9,29.91,South,180,7.6,7.6,80,12.38,,,12.38,meteobridge,2013-05-23 20:04:00,
2013-05-23 16:09:00,73.8,67.3,29.90,South,180,9.8,9.8,80,12.38,,,12.38,meteobridge,2013-05-23 20:09:00,
2013-05-23 16:14:00,73.6,66.7,29.90,NW,315,6.0,6.0,79,12.38,,,12.38,meteobridge,2013-05-23 20:14:00,
2013-05-23 16:19:00,73.8,67.3,29.90,NE,45,8.3,8.3,80,12.38,,,12.38,meteobridge,2013-05-23 20:19:00,
2013-05-23 16:24:00,74.7,67.3,29.90,North,0,6.9,10.7,78,12.38,,,12.38,meteobridge,2013-05-23 20:24:00,
2013-05-23 16:30:00,74.1,66.7,29.90,SE,135,5.4,11.4,78,12.38,,,12.38,meteobridge,2013-05-23 20:30:00,
2013-05-23 16:35:00,74.7,67.6,29.90,NE,45,5.4,8.3,79,12.38,,,12.38,meteobridge,2013-05-23 20:35:00,
2013-05-23 16:40:00,74.3,66.9,29.90,NE,45,5.4,8.3,78,0.00,,,12.38,meteobridge,2013-05-23 20:40:00,
2013-05-23 16:45:00,73.8,66.4,29.91,WNW,293,4.5,5.4,78,0.00,,,12.38,meteobridge,2013-05-23 20:45:00,
2013-05-23 16:50:00,73.2,66.4,29.90,ENE,68,5.4,5.4,79,0.00,,,12.38,meteobridge,2013-05-23 20:50:00,
2013-05-23 16:55:00,73.4,66.6,29.90,South,180,4.5,9.8,79,0.00,,,12.38,meteobridge,2013-05-23 20:55:00,
2013-05-23 17:00:00,73.8,66.9,29.90,ENE,68,6.9,6.9,79,0.00,,,12.38,meteobridge,2013-05-23 21:00:00,
2013-05-23 17:06:00,73.9,66.6,29.90,NW,315,4.5,4.5,78,0.00,,,12.38,meteobridge,2013-05-23 21:06:00,
2013-05-23 17:11:00,73.6,66.4,29.90,NE,45,6.0,9.2,78,0.00,,,12.38,meteobridge,2013-05-23 21:11:00,
2013-05-23 17:16:00,73.6,66.4,29.90,NE,45,6.0,6.0,78,0.00,,,12.38,meteobridge,2013-05-23 21:16:00,
2013-05-23 17:21:00,73.0,65.8,29.90,North,0,6.9,12.1,78,0.00,,,12.38,meteobridge,2013-05-23 21:21:00,
2013-05-23 17:26:00,72.7,65.5,29.90,East,90,6.9,6.9,78,0.00,,,12.38,meteobridge,2013-05-23 21:26:00,
2013-05-23 17:31:00,72.1,65.7,29.90,East,90,7.6,7.6,80,0.00,,,12.38,meteobridge,2013-05-23 21:31:00,
2013-05-23 17:37:00,71.8,65.3,29.90,NE,45,9.2,9.2,80,0.00,,,12.38,meteobridge,2013-05-23 21:37:00,
2013-05-23 17:42:00,71.4,65.7,29.89,North,0,6.0,6.0,82,0.00,,,12.38,meteobridge,2013-05-23 21:42:00,
2013-05-23 17:47:00,70.9,65.5,29.90,North,0,3.8,6.9,83,0.00,,,12.38,meteobridge,2013-05-23 21:47:00,
2013-05-23 17:52:00,70.5,65.1,29.90,NE,45,5.4,8.3,83,0.00,,,12.38,meteobridge,2013-05-23 21:52:00,
2013-05-23 17:57:00,70.3,64.9,29.90,SE,135,3.8,3.8,83,0.00,,,12.38,meteobridge,2013-05-23 21:57:00,
2013-05-23 18:02:00,70.0,64.9,29.90,SE,135,9.2,-999.0,84,0.00,,,12.38,meteobridge,2013-05-23 22:02:00,
2013-05-23 18:08:00,69.6,65.3,29.90,NE,45,6.0,6.0,86,0.00,,,12.38,meteobridge,2013-05-23 22:08:00,
2013-05-23 18:13:00,69.4,65.5,29.90,SW,225,4.5,6.0,87,0.00,,,12.38,meteobridge,2013-05-23 22:13:00,
2013-05-23 18:18:00,69.3,65.5,29.91,North,0,6.9,6.9,88,0.00,,,12.38,meteobridge,2013-05-23 22:18:00,
2013-05-23 18:23:00,68.7,65.7,29.90,East,90,6.0,6.0,90,0.00,,,12.38,meteobridge,2013-05-23 22:23:00,
2013-05-23 18:28:00,68.5,65.8,29.90,NNE,23,6.9,6.9,91,0.00,,,12.38,meteobridge,2013-05-23 22:28:00,
2013-05-23 18:33:00,68.4,65.7,29.90,East,90,5.4,9.8,91,0.00,,,12.38,meteobridge,2013-05-23 22:33:00,
2013-05-23 18:39:00,68.5,65.8,29.90,NE,45,5.4,5.4,91,0.00,,,12.38,meteobridge,2013-05-23 22:39:00,
2013-05-23 18:44:00,68.4,66.0,29.90,NE,45,8.3,8.3,92,0.00,,,12.38,meteobridge,2013-05-23 22:44:00,
2013-05-23 18:49:00,68.4,66.0,29.90,NE,45,6.0,7.6,92,0.00,,,12.38,meteobridge,2013-05-23 22:49:00,
2013-05-23 18:54:00,68.2,65.8,29.90,NW,315,5.4,6.0,92,0.00,,,12.38,meteobridge,2013-05-23 22:54:00,
2013-05-23 18:59:00,68.0,65.7,29.90,SW,225,6.9,6.9,92,0.00,,,12.38,meteobridge,2013-05-23 22:59:00,
2013-05-23 19:04:00,67.5,65.7,29.90,NW,315,6.0,6.0,94,0.00,,,12.38,meteobridge,2013-05-23 23:04:00,
2013-05-23 19:10:00,67.5,65.7,29.90,WSW,248,3.8,6.0,94,0.00,,,12.38,meteobridge,2013-05-23 23:10:00,
2013-05-23 19:15:00,67.3,65.8,29.91,ENE,68,12.1,12.1,95,0.00,,,12.38,meteobridge,2013-05-23 23:15:00,
2013-05-23 19:20:00,67.1,65.7,29.91,NE,45,7.6,10.7,95,0.00,,,12.38,meteobridge,2013-05-23 23:20:00,
2013-05-23 19:25:00,67.1,65.7,29.91,NE,45,6.9,6.9,95,0.00,,,12.38,meteobridge,2013-05-23 23:25:00,
2013-05-23 19:30:00,66.7,65.3,29.91,NE,45,3.8,5.4,95,0.00,,,12.38,meteobridge,2013-05-23 23:30:00,
2013-05-23 19:35:00,66.7,65.3,29.91,NE,45,5.4,5.4,95,0.00,,,12.38,meteobridge,2013-05-23 23:35:00,
2013-05-23 19:41:00,66.6,65.3,29.91,East,90,4.5,4.5,96,0.00,,,12.38,meteobridge,2013-05-23 23:41:00,
2013-05-23 19:46:00,66.6,65.3,29.91,North,0,3.8,6.9,96,0.00,,,12.38,meteobridge,2013-05-23 23:46:00,
2013-05-23 19:51:00,66.6,65.3,29.91,SE,135,4.5,5.4,96,0.00,,,12.38,meteobridge,2013-05-23 23:51:00,
2013-05-23 19:56:00,66.7,65.8,29.91,ENE,68,6.0,6.0,97,0.00,,,12.38,meteobridge,2013-05-23 23:56:00,
2013-05-23 20:01:00,66.7,65.8,29.91,NE,45,4.5,4.5,97,0.00,,,12.38,meteobridge,2013-05-24 00:01:00,
2013-05-23 20:06:00,66.7,65.8,29.91,East,90,4.5,4.5,97,0.00,,,12.38,meteobridge,2013-05-24 00:06:00,
2013-05-23 20:12:00,66.7,65.5,29.91,North,0,5.4,6.0,96,0.00,,,12.38,meteobridge,2013-05-24 00:12:00,
2013-05-23 20:17:00,66.6,65.3,29.90,East,90,6.9,6.9,96,0.00,,,12.38,meteobridge,2013-05-24 00:17:00,
2013-05-23 20:22:00,66.6,65.3,29.91,East,90,3.8,5.4,96,0.00,,,12.38,meteobridge,2013-05-24 00:22:00,
2013-05-23 20:27:00,66.6,65.3,29.91,NE,45,5.4,7.6,96,0.00,,,12.38,meteobridge,2013-05-24 00:27:00,
2013-05-23 20:32:00,66.6,65.3,29.91,ENE,68,6.0,6.9,96,0.00,,,12.38,meteobridge,2013-05-24 00:32:00,
2013-05-23 20:37:00,66.6,65.3,29.90,NNE,23,6.9,7.6,96,0.00,,,12.38,meteobridge,2013-05-24 00:37:00,
2013-05-23 20:43:00,66.4,65.1,29.90,ESE,113,3.8,9.2,96,0.00,,,12.38,meteobridge,2013-05-24 00:43:00,
2013-05-23 20:48:00,66.4,65.1,29.90,NE,45,9.2,9.2,96,0.00,,,12.38,meteobridge,2013-05-24 00:48:00,
2013-05-23 20:53:00,66.4,65.1,29.90,NE,45,7.6,7.6,96,0.00,,,12.38,meteobridge,2013-05-24 00:53:00,
2013-05-23 20:58:00,66.4,65.1,29.90,West,270,6.9,6.9,96,0.00,,,12.38,meteobridge,2013-05-24 00:58:00,
2013-05-23 21:03:00,66.2,64.9,29.90,NE,45,6.9,8.3,96,0.00,,,12.38,meteobridge,2013-05-24 01:03:00,
2013-05-23 21:08:00,66.4,65.1,29.91,North,0,5.4,6.0,96,0.00,,,12.38,meteobridge,2013-05-24 01:08:00,
2013-05-23 21:13:00,66.4,65.1,29.90,NE,45,5.4,6.9,96,0.00,,,12.38,meteobridge,2013-05-24 01:13:00,
2013-05-23 21:19:00,66.6,65.3,29.91,East,90,6.0,6.0,96,0.00,,,12.38,meteobridge,2013-05-24 01:19:00,
2013-05-23 21:24:00,66.7,65.5,29.91,North,0,5.4,5.4,96,0.00,,,12.38,meteobridge,2013-05-24 01:24:00,
2013-05-23 21:29:00,66.7,65.5,29.90,East,90,6.0,6.0,96,0.00,,,12.38,meteobridge,2013-05-24 01:29:00,
2013-05-23 21:34:00,66.6,65.3,29.90,NW,315,3.1,3.8,96,0.01,,,12.39,meteobridge,2013-05-24 01:34:00,
2013-05-23 21:39:00,66.6,65.3,29.90,East,90,4.5,4.5,96,0.02,,,12.40,meteobridge,2013-05-24 01:39:00,
2013-05-23 21:44:00,66.2,65.3,29.90,East,90,4.5,4.5,97,0.02,,,12.40,meteobridge,2013-05-24 01:44:00,
2013-05-23 21:50:00,66.0,65.7,29.90,North,0,3.8,4.5,99,0.02,,,12.40,meteobridge,2013-05-24 01:50:00,
2013-05-23 21:55:00,66.0,65.7,29.90,East,90,5.4,5.4,99,0.02,,,12.40,meteobridge,2013-05-24 01:55:00,
2013-05-23 22:00:00,65.8,65.5,29.90,NE,45,6.0,6.0,99,0.02,,,12.40,meteobridge,2013-05-24 02:00:00,
2013-05-23 22:05:00,65.8,65.5,29.90,NE,45,5.4,9.8,99,0.02,,,12.40,meteobridge,2013-05-24 02:05:00,
2013-05-23 22:10:00,65.8,65.5,29.89,NE,45,3.1,5.4,99,0.04,,,12.41,meteobridge,2013-05-24 02:10:00,
2013-05-23 22:15:00,66.0,65.7,29.89,North,0,6.9,6.9,99,0.05,,,12.43,meteobridge,2013-05-24 02:15:00,
2013-05-23 22:21:00,66.0,65.7,29.89,NE,45,3.1,3.8,99,0.06,,,12.44,meteobridge,2013-05-24 02:21:00,
2013-05-23 22:26:00,66.0,65.7,29.88,NE,45,3.8,5.4,99,0.07,,,12.45,meteobridge,2013-05-24 02:26:00,
2013-05-23 22:31:00,65.8,65.5,29.89,NE,45,2.2,3.8,99,0.12,,,12.50,meteobridge,2013-05-24 02:31:00,
2013-05-23 22:36:00,65.7,65.3,29.89,East,90,3.8,4.5,99,0.09,,,12.50,meteobridge,2013-05-24 02:36:00,
2013-05-23 22:41:00,65.5,65.1,29.88,East,90,3.1,6.0,99,0.09,,,12.50,meteobridge,2013-05-24 02:41:00,
2013-05-23 22:46:00,65.5,65.1,29.88,NE,45,5.4,6.0,99,0.09,,,12.50,meteobridge,2013-05-24 02:46:00,
2013-05-23 22:52:00,65.1,64.8,29.88,NE,45,4.5,4.5,99,0.09,,,12.50,meteobridge,2013-05-24 02:52:00,
2013-05-23 22:57:00,65.1,64.8,29.88,North,0,3.1,4.5,99,0.09,,,12.50,meteobridge,2013-05-24 02:57:00,
2013-05-23 23:02:00,65.1,64.8,29.87,NE,45,4.5,4.5,99,0.09,,,12.50,meteobridge,2013-05-24 03:02:00,
2013-05-23 23:07:00,65.1,64.8,29.87,NE,45,4.5,4.5,99,0.09,,,12.50,meteobridge,2013-05-24 03:07:00,
2013-05-23 23:12:00,64.9,64.6,29.87,SW,225,3.8,6.0,99,0.09,,,12.51,meteobridge,2013-05-24 03:12:00,
2013-05-23 23:17:00,64.9,64.6,29.87,NE,45,4.5,4.5,99,0.08,,,12.51,meteobridge,2013-05-24 03:17:00,
2013-05-23 23:23:00,65.3,64.9,29.86,North,0,4.5,4.5,99,0.06,,,12.51,meteobridge,2013-05-24 03:23:00,
2013-05-23 23:28:00,65.5,65.1,29.86,NE,45,5.4,6.0,99,0.02,,,12.51,meteobridge,2013-05-24 03:28:00,
2013-05-23 23:33:00,65.8,65.5,29.86,NW,315,5.4,5.4,99,0.01,,,12.51,meteobridge,2013-05-24 03:33:00,
2013-05-23 23:38:00,65.8,65.5,29.86,East,90,3.1,7.6,99,0.01,,,12.51,meteobridge,2013-05-24 03:38:00,
2013-05-23 23:43:00,65.8,65.5,29.86,ENE,68,3.1,6.0,99,0.04,,,12.53,meteobridge,2013-05-24 03:43:00,
2013-05-23 23:48:00,65.8,65.5,29.86,NE,45,2.2,6.0,99,0.04,,,12.53,meteobridge,2013-05-24 03:48:00,
2013-05-23 23:54:00,65.7,65.3,29.85,NE,45,3.8,4.5,99,0.05,,,12.54,meteobridge,2013-05-24 03:54:00,
2013-05-23 23:59:00,65.5,65.1,29.85,East,90,6.9,6.9,99,0.05,,,12.54,meteobridge,2013-05-24 03:59:00,